Flag for Finland Weather past 2 weeks in Kuopio, Finland

Now
34 °F

Overcast.


Feels Like: 25 °F
Forecast: 34 / 36 °F
Wind: 13 mph from South

Location: Kuopio Airport

Current Time: Mar 29, 2015 at 12:49:36 PM

Latest Report: Mar 29, 2015 at 12:20 PM


Visibility: N/A

Pressure: 29.71 "Hg

Humidity: 87%

Dew point: 30 °F

Location of KuopioLocation

Historic Weather in Kuopio — Graph

°F

Kuopio temperature yesterday

Maximum temperature yesterday: 41 °F (at 2:20 PM)
Minimum temperature yesterday: 32 °F (at 12:20 AM)
Average temperature yesterday: 36 °F

Past Weeks' High & Low Weather Summary

 TemperatureHumidityPressure
High46 °F (Mar 16, 3:20 PM)100% (Mar 15, 5:20 AM)31.04 "Hg (Mar 15, 5:20 AM)
Low7 °F (Mar 26, 4:20 AM)32% (Mar 16, 5:50 PM)29.03 "Hg (Mar 24, 5:20 AM)
Average30 °F70%30.22 "Hg
* Reported Mar 14 10:20 AM — Mar 29 11:50 AM, Kuopio, Weather by CustomWeather, © 2015

Note: Actual official high and low records may vary slightly from our data, if they occured in-between our weather recording intervals... More about our weather records

Advertising

Kuopio weather history for previous 24 hours

 ConditionsComfort  
Time TempWeatherWind HumidityBarometerVisibility
11:50 AM
Sun, Mar 29
34 °FOvercast.12 mph93%29.71 "HgN/A
11:20 AM34 °FOvercast.9 mph93%29.74 "HgN/A
10:50 AM34 °FOvercast.10 mph87%29.74 "HgN/A
10:20 AM34 °FOvercast.10 mph93%29.74 "HgN/A
9:50 AM34 °FLow clouds.10 mph93%29.74 "HgN/A
9:20 AM34 °FMore clouds than sun.9 mph93%29.74 "HgN/A
8:50 AM34 °FMore clouds than sun.8 mph93%29.74 "HgN/A
8:20 AM34 °FMostly cloudy.9 mph93%29.74 "HgN/A
7:50 AM34 °FLow clouds.9 mph100%29.74 "HgN/A
7:20 AM32 °FLow clouds.9 mph100%29.77 "Hg3 mi
6:20 AM32 °FLow clouds.10 mph100%29.77 "Hg4 mi
5:50 AM32 °FIce fog.9 mph100%29.77 "Hg2 mi
5:20 AM32 °FIce fog.7 mph100%29.77 "Hg2 mi
4:50 AM32 °FSnow flurries. Low clouds.8 mph100%29.77 "Hg3 mi
4:20 AM32 °FLight snow. Low clouds.6 mph100%29.77 "Hg3 mi
2:50 AM32 °FLight snow. Low clouds.3 mph100%29.80 "Hg4 mi
2:20 AM32 °FLight rain. Passing clouds.6 mph100%29.80 "Hg4 mi
1:50 AM32 °FSleet. Low clouds.7 mph100%29.80 "Hg3 mi
1:20 AM32 °FLight rain. Mostly cloudy.8 mph100%29.80 "Hg3 mi
12:50 AM32 °FIce fog.6 mph100%29.80 "Hg3 mi
12:20 AM32 °FSleet. Low clouds.5 mph100%29.80 "Hg1 mi
11:50 PM
Sat, Mar 28
32 °FLight snow. Low clouds.6 mph100%29.80 "Hg1 mi
11:20 PM32 °FSleet. Low clouds.5 mph100%29.80 "Hg1 mi
10:50 PM34 °FSleet. Low clouds.6 mph93%29.80 "Hg1 mi
10:20 PM34 °FSprinkles. Low clouds.8 mph100%29.80 "Hg2 mi
9:50 PM34 °FScattered showers. Low clouds.9 mph100%29.80 "Hg3 mi
9:20 PM34 °FLight rain. Low clouds.10 mph100%29.80 "Hg3 mi
8:50 PM34 °FFog.13 mph100%29.80 "Hg3 mi
8:20 PM36 °FLight rain. Low clouds.13 mph93%29.80 "Hg3 mi
7:50 PM36 °FFog.13 mph93%29.80 "Hg3 mi
7:20 PM36 °FFog.12 mph93%29.80 "Hg3 mi
6:50 PM36 °FLight rain. Low clouds.10 mph93%29.80 "Hg2 mi
6:20 PM36 °FLight rain. Low clouds.14 mph93%29.80 "Hg2 mi
5:50 PM37 °FLight rain. Overcast.15 mph87%29.80 "Hg4 mi
5:20 PM37 °FLight rain. Overcast.16 mph87%29.80 "Hg6 mi
4:50 PM39 °FLight rain. Overcast.13 mph81%29.80 "HgN/A
4:20 PM41 °FLight rain. Overcast.15 mph70%29.80 "HgN/A
3:50 PM39 °FOvercast.16 mph75%29.80 "HgN/A
3:20 PM39 °FOvercast.17 mph75%29.80 "HgN/A
2:50 PM41 °FOvercast.16 mph70%29.80 "HgN/A
2:20 PM41 °FPartly sunny.18 mph70%29.80 "HgN/A
1:50 PM39 °FBroken clouds.17 mph75%29.83 "HgN/A
1:20 PM39 °FSunny.17 mph75%29.80 "Hg10 mi
12:50 PM39 °FSunny.16 mph75%29.83 "Hg10 mi
12:20 PM37 °FSunny.15 mph81%29.83 "Hg10 mi
Weather by CustomWeather, © 2015

See weather overviewHow to use our weather pages